FW2205 Weather Reports


Display with metric or nautical units.
time (UTC)temp
F
wind
direction
speed
MPH
gust
MPH
rain 1hr
in
rain 24hr
in
rain mn
in
humidity
%
barometer
mb
20260506013515 69 0.0 0.0 0.00 0.00 0.00
20260506013015 69 0.0 0.0 0.00 0.00 0.00
20260506012515 69 0.0 0.0 0.00 0.00 0.00
20260506012016 69 0.0 0.0 0.00 0.00 0.00
20260506011515 69 0.0 0.0 0.00 0.00 0.00
20260506011016 70 0.0 0.0 0.00 0.00 0.00
20260506010515 70 0.0 0.0 0.00 0.00 0.00
20260506010016 70 0.0 0.0 0.00 0.00 0.00
20260506005515 70 182 0.0 1.0 0.00 0.00 0.00
20260506005015 71 170 0.0 3.0 0.00 0.00 0.00
20260506004515 71 0.0 0.0 0.00 0.00 0.00
20260506004037 72 0.0 0.0 0.00 0.00 0.00
20260506003515 72 203 0.0 5.0 0.00 0.00 0.00
20260506003016 72 0.0 0.0 0.00 0.00 0.00
20260506002536 72 0.0 0.0 0.00 0.00 0.00
20260506002017 72 0.0 0.0 0.00 0.00 0.00
20260506001536 73 0.0 0.0 0.00 0.00 0.00
20260506001015 73 0.0 0.0 0.00 0.00 0.00
20260506000515 73 127 0.0 2.0 0.00 0.00 0.00
20260506000015 74 34 0.0 2.0 0.00 0.00 0.00
20260505235535 74 199 0.0 3.0 0.00 0.00 0.00
20260505235016 75 217 0.0 1.0 0.00 0.00 0.00
20260505234515 75 0.0 0.0 0.00 0.00 0.00
20260505234016 76 216 0.0 3.0 0.00 0.00 0.00
20260505233516 76 258 1.0 6.0 0.00 0.00 0.00
20260505233015 76 242 1.0 3.0 0.00 0.00 0.00
20260505232516 76 190 0.0 5.0 0.00 0.00 0.00
20260505232036 77 234 0.0 2.0 0.00 0.00 0.00
20260505231516 77 161 0.0 1.0 0.00 0.00 0.00
20260505231037 77 221 1.0 5.0 0.00 0.00 0.00
20260505230515 78 254 0.0 1.0 0.00 0.00 0.00
20260505230035 78 217 0.0 4.0 0.00 0.00 0.00
20260505225516 78 214 1.0 3.0 0.00 0.00 0.00
20260505225015 78 199 1.0 5.0 0.00 0.00 0.00
20260505224515 78 37 0.0 3.0 0.00 0.00 0.00
20260505224015 77 150 0.0 1.0 0.00 0.00 0.00
20260505223515 77 144 0.0 1.0 0.00 0.00 0.00
20260505223015 78 240 1.0 4.0 0.00 0.00 0.00
20260505222515 78 174 0.0 2.0 0.00 0.00 0.00
20260505222015 78 214 2.0 6.0 0.00 0.00 0.00
20260505221515 79 219 1.0 3.0 0.00 0.00 0.00
20260505221015 80 254 1.0 6.0 0.00 0.00 0.00
20260505220516 80 288 1.0 3.0 0.00 0.00 0.00
20260505220036 80 213 1.0 3.0 0.00 0.00 0.00
20260505215515 80 199 2.0 6.0 0.00 0.00 0.00
20260505215015 81 274 1.0 6.0 0.00 0.00 0.00
20260505214515 81 184 1.0 4.0 0.00 0.00 0.00
20260505214015 81 220 1.0 3.0 0.00 0.00 0.00
20260505213516 81 222 2.0 6.0 0.00 0.00 0.00
20260505213015 82 246 3.0 8.0 0.00 0.00 0.00
20260505212535 82 223 1.0 7.0 0.00 0.00 0.00
20260505212057 81 218 2.0 6.0 0.00 0.00 0.00
20260505211515 81 232 2.0 12.0 0.00 0.00 0.00
20260505211037 81 232 2.0 6.0 0.00 0.00 0.00
20260505210537 81 213 2.0 6.0 0.00 0.00 0.00
20260505210015 81 236 2.0 7.0 0.00 0.00 0.00
20260505205515 81 225 1.0 4.0 0.00 0.00 0.00
20260505205036 81 207 2.0 7.0 0.00 0.00 0.00
20260505204516 81 122 1.0 5.0 0.00 0.00 0.00
20260505204056 81 250 2.0 5.0 0.00 0.00 0.00
20260505203515 81 273 2.0 6.0 0.00 0.00 0.00
20260505203015 81 204 2.0 9.0 0.00 0.00 0.00
20260505202516 81 235 3.0 7.0 0.00 0.00 0.00
20260505202016 81 261 1.0 8.0 0.00 0.00 0.00
20260505201515 81 228 1.0 6.0 0.00 0.00 0.00
20260505201036 81 184 1.0 4.0 0.00 0.00 0.00
20260505200516 81 144 2.0 6.0 0.00 0.00 0.00
20260505200016 80 184 1.0 4.0 0.00 0.00 0.00
20260505195515 81 325 0.0 2.0 0.00 0.00 0.00
20260505195016 80 196 1.0 6.0 0.00 0.00 0.00
20260505194516 80 171 1.0 4.0 0.00 0.00 0.00
20260505194015 80 159 2.0 5.0 0.00 0.00 0.00
20260505193516 80 205 1.0 5.0 0.00 0.00 0.00
20260505193016 79 216 1.0 6.0 0.00 0.00 0.00
20260505192515 79 193 2.0 6.0 0.00 0.00 0.00
20260505192036 79 200 1.0 7.0 0.00 0.00 0.00
20260505191515 80 252 2.0 9.0 0.00 0.00 0.00
20260505191015 80 273 0.0 3.0 0.00 0.00 0.00
20260505190535 79 213 3.0 8.0 0.00 0.00 0.00
20260505190036 79 240 1.0 7.0 0.00 0.00 0.00
20260505185515 80 257 1.0 4.0 0.00 0.00 0.00
20260505185015 79 247 1.0 4.0 0.00 0.00 0.00
20260505184515 79 232 1.0 8.0 0.00 0.00 0.00
20260505184058 80 229 2.0 6.0 0.00 0.00 0.00
20260505183515 79 169 1.0 5.0 0.00 0.00 0.00
20260505183016 79 251 3.0 7.0 0.00 0.00 0.00
20260505182515 78 256 3.0 6.0 0.00 0.00 0.00
20260505182015 77 276 1.0 7.0 0.00 0.00 0.00
20260505181516 77 227 3.0 8.0 0.00 0.00 0.00
20260505181036 77 133 1.0 3.0 0.00 0.00 0.00
20260505180556 78 172 1.0 3.0 0.00 0.00 0.00
20260505180016 78 253 3.0 6.0 0.00 0.00 0.00
20260505175536 78 153 1.0 3.0 0.00 0.00 0.00
20260505175035 78 170 1.0 4.0 0.00 0.00 0.00
20260505174515 78 221 2.0 7.0 0.00 0.00 0.00
20260505174015 77 223 2.0 9.0 0.00 0.00 0.00
20260505173516 77 232 2.0 8.0 0.00 0.00 0.00
20260505173015 76 137 1.0 4.0 0.00 0.00 0.00
20260505172515 76 227 4.0 10.0 0.00 0.00 0.00
20260505172016 76 196 2.0 5.0 0.00 0.00 0.00
20260505171535 76 211 3.0 14.0 0.00 0.00 0.00
20260505171016 75 238 3.0 10.0 0.00 0.00 0.00
20260505170515 75 271 4.0 11.0 0.00 0.00 0.00
20260505170016 75 261 3.0 8.0 0.00 0.00 0.00
20260505165515 75 263 4.0 12.0 0.00 0.00 0.00
20260505165035 74 242 3.0 9.0 0.00 0.00 0.00
20260505164516 74 245 4.0 9.0 0.00 0.00 0.00
20260505164016 74 264 4.0 12.0 0.00 0.00 0.00
20260505163536 74 241 3.0 11.0 0.00 0.00 0.00
20260505163016 74 215 3.0 10.0 0.00 0.00 0.00
20260505162515 74 229 3.0 12.0 0.00 0.00 0.00
20260505162015 74 225 3.0 10.0 0.00 0.00 0.00
20260505161515 74 220 2.0 6.0 0.00 0.00 0.00
20260505161015 74 228 2.0 4.0 0.00 0.00 0.00
20260505160516 73 158 1.0 6.0 0.00 0.00 0.00
20260505153016 71 232 3.0 11.0 0.00 0.00 0.00
20260505152516 70 209 3.0 7.0 0.00 0.00 0.00
20260505152016 69 245 1.0 4.0 0.00 0.00 0.00
20260505151515 69 230 1.0 3.0 0.00 0.00 0.00
20260505151015 68 264 2.0 5.0 0.00 0.00 0.00
20260505150515 68 16 1.0 3.0 0.00 0.00 0.00
20260505140515 63 360 1.0 3.0 0.00 0.00 0.00
20260505125015 57 0.0 0.0 0.00 0.00 0.00
20260505124515 56 0.0 0.0 0.00 0.00 0.00
20260505124015 56 0.0 0.0 0.00 0.00 0.00
20260505123515 56 0.0 0.0 0.00 0.00 0.00
20260505123036 56 0.0 0.0 0.00 0.00 0.00
20260505122516 55 0.0 0.0 0.00 0.00 0.00
20260505122015 55 0.0 0.0 0.00 0.00 0.00
20260505121515 54 0.0 0.0 0.00 0.00 0.00
20260505121015 54 0.0 0.0 0.00 0.00 0.00
20260505120515 54 0.0 0.0 0.00 0.00 0.00
20260505120037 54 0.0 0.0 0.00 0.00 0.00
20260505115515 54 0.0 0.0 0.00 0.00 0.00
20260505115015 53 0.0 0.0 0.00 0.00 0.00
20260505114535 53 0.0 0.0 0.00 0.00 0.00
20260505114035 53 0.0 0.0 0.00 0.00 0.00
20260505113516 53 0.0 0.0 0.00 0.00 0.00
20260505113015 52 0.0 0.0 0.00 0.00 0.00
20260505112536 52 0.0 0.0 0.00 0.00 0.00
20260505112036 52 0.0 0.0 0.00 0.00 0.00
20260505111516 52 0.0 0.0 0.00 0.00 0.00
20260505111015 52 0.0 0.0 0.00 0.00 0.00
20260505110516 52 0.0 0.0 0.00 0.00 0.00
20260505102015 52 0.0 0.0 0.00 0.00 0.00
20260505101516 52 0.0 0.0 0.00 0.00 0.00
20260505101035 52 0.0 0.0 0.00 0.00 0.00
20260505100535 52 0.0 0.0 0.00 0.00 0.00
20260505100015 52 0.0 0.0 0.00 0.00 0.00
20260505095515 53 0.0 0.0 0.00 0.00 0.00
20260505095015 53 0.0 0.0 0.00 0.00 0.00
20260505094515 53 0.0 0.0 0.00 0.00 0.00
20260505094015 53 0.0 0.0 0.00 0.00 0.00
20260505093515 53 0.0 0.0 0.00 0.00 0.00
20260505093036 53 0.0 0.0 0.00 0.00 0.00
20260505092516 53 0.0 0.0 0.00 0.00 0.00
20260505092056 53 0.0 0.0 0.00 0.00 0.00
20260505091515 53 0.0 0.0 0.00 0.00 0.00
20260505091015 53 0.0 0.0 0.00 0.00 0.00
20260505090515 53 0.0 0.0 0.00 0.00 0.00
20260505090037 53 0.0 0.0 0.00 0.00 0.00
20260505085515 53 0.0 0.0 0.00 0.00 0.00
20260505085015 53 0.0 0.0 0.00 0.00 0.00
20260505084515 53 0.0 0.0 0.00 0.00 0.00
20260505084035 53 0.0 0.0 0.00 0.00 0.00
20260505083515 53 0.0 0.0 0.00 0.00 0.00
20260505083016 53 0.0 0.0 0.00 0.00 0.00
20260505082515 53 0.0 0.0 0.00 0.00 0.00
20260505082036 53 0.0 0.0 0.00 0.00 0.00
20260505081515 53 0.0 0.0 0.00 0.00 0.00
20260505081015 53 261 0.0 1.0 0.00 0.00 0.00
20260505080515 53 0.0 0.0 0.00 0.00 0.00
20260505080015 54 0.0 0.0 0.00 0.00 0.00
20260505075535 54 0.0 0.0 0.00 0.00 0.00
20260505075015 54 0.0 0.0 0.00 0.00 0.00
20260505074556 54 0.0 0.0 0.00 0.00 0.00
20260505074015 54 0.0 0.0 0.00 0.00 0.00
20260505073516 54 0.0 0.0 0.00 0.00 0.00
20260505073015 54 0.0 0.0 0.00 0.00 0.00
20260505072515 54 0.0 0.0 0.00 0.00 0.00
20260505072016 54 0.0 0.0 0.00 0.00 0.00
20260505071515 54 0.0 0.0 0.00 0.00 0.00
20260505071037 55 0.0 0.0 0.00 0.00 0.00
20260505070515 55 0.0 0.0 0.00 0.00 0.00
20260505070036 55 0.0 0.0 0.00 0.00 0.00
20260505065515 55 0.0 0.0 0.00 0.00 0.00
20260505065015 55 0.0 0.0 0.00 0.00 0.00
20260505064617 55 0.0 0.0 0.00 0.00 0.00
20260505064015 55 0.0 0.0 0.00 0.00 0.00
20260505063516 56 0.0 0.0 0.00 0.00 0.00
20260505063015 56 0.0 0.0 0.00 0.00 0.00
20260505062515 56 0.0 0.0 0.00 0.00 0.00
20260505062036 56 0.0 0.0 0.00 0.00 0.00
20260505061535 56 0.0 0.0 0.00 0.00 0.00
20260505061015 56 0.0 0.0 0.00 0.00 0.00
20260505060516 56 0.0 0.0 0.00 0.00 0.00
20260505060015 57 0.0 0.0 0.00 0.00 0.00
20260505055515 57 0.0 0.0 0.00 0.00 0.00
20260505055015 57 0.0 0.0 0.00 0.00 0.00
20260505054515 57 0.0 0.0 0.00 0.00 0.00
20260505054015 57 0.0 0.0 0.00 0.00 0.00
20260505053536 57 0.0 0.0 0.00 0.00 0.00
20260505053015 57 0.0 0.0 0.00 0.00 0.00
20260505052515 57 0.0 0.0 0.00 0.00 0.00
20260505052015 57 0.0 0.0 0.00 0.00 0.00
20260505051536 58 0.0 0.0 0.00 0.00 0.00
20260505051015 58 0.0 0.0 0.00 0.00 0.00
20260505050515 58 0.0 0.0 0.00 0.00 0.00
20260505041516 59 0.0 0.0 0.00 0.00 0.00
20260505041015 59 0.0 0.0 0.00 0.00 0.00
20260505040515 59 0.0 0.0 0.00 0.00 0.00
20260505040015 60 0.0 0.0 0.00 0.00 0.00
20260505035515 60 0.0 0.0 0.00 0.00 0.00
20260505035015 60 0.0 0.0 0.00 0.00 0.00
20260505034515 60 0.0 0.0 0.00 0.00 0.00
20260505034016 60 0.0 0.0 0.00 0.00 0.00
20260505033516 60 0.0 0.0 0.00 0.00 0.00
20260505033015 61 0.0 0.0 0.00 0.00 0.00
20260505032515 61 0.0 0.0 0.00 0.00 0.00
20260505032015 61 0.0 0.0 0.00 0.00 0.00
20260505031515 61 0.0 0.0 0.00 0.00 0.00
20260505031015 61 0.0 0.0 0.00 0.00 0.00
20260505030515 61 0.0 0.0 0.00 0.00 0.00
20260505030015 61 0.0 0.0 0.00 0.00 0.00
20260505025515 61 0.0 0.0 0.00 0.00 0.00
20260505025015 62 0.0 0.0 0.00 0.00 0.00
20260505024516 62 0.0 0.0 0.00 0.00 0.00
20260505024016 62 0.0 0.0 0.00 0.00 0.00
20260505023555 62 0.0 0.0 0.00 0.00 0.00
20260505023015 62 0.0 0.0 0.00 0.00 0.00
20260505022515 63 0.0 0.0 0.00 0.00 0.00
20260505022015 63 0.0 0.0 0.00 0.00 0.00
20260505021515 63 0.0 0.0 0.00 0.00 0.00
20260505021015 63 0.0 0.0 0.00 0.00 0.00
20260505020516 63 0.0 0.0 0.00 0.00 0.00
20260505020016 64 0.0 0.0 0.00 0.00 0.00
20260505015515 64 0.0 0.0 0.00 0.00 0.00
20260505015015 64 0.0 0.0 0.00 0.00 0.00
20260505014515 64 0.0 0.0 0.00 0.00 0.00
20260505014016 65 0.0 0.0 0.00 0.00 0.00